Hourly Weather Lezhe

Today, 21 September, Monday

Time Temperature Precipitation Wind Pressure Humidity
00:00 +20°C° 0 mm 1 mps 738 mmHg 54%
01:00 +20°C° 0 mm 1 mps 738 mmHg 54%
02:00 +19°C° 0 mm 1 mps 738 mmHg 54%
03:00 +19°C° 0 mm 1 mps 738 mmHg 54%
04:00 +18°C° 0 mm 2 mps 738 mmHg 55%
05:00 +19°C° 0 mm 2 mps 738 mmHg 51%
06:00 +21°C° 0 mm 1 mps 738 mmHg 48%
07:00 +22°C° 0 mm 1 mps 738 mmHg 44%
08:00 +25°C° 0 mm 1 mps 738 mmHg 39%
09:00 +27°C° 0 mm 1 mps 738 mmHg 34%
10:00 +30°C° 0 mm 1 mps 738 mmHg 29%
11:00 +30°C° 0 mm 2 mps 738 mmHg 30%
12:00 +31°C° 0 mm 2 mps 738 mmHg 30%
13:00 +31°C° 0 mm 3 mps 738 mmHg 31%
14:00 +30°C° 0 mm 3 mps 738 mmHg 35%
15:00 +29°C° 0 mm 2 mps 737 mmHg 39%
16:00 +28°C° 0 mm 2 mps 737 mmHg 44%
17:00 +26°C° 0 mm 2 mps 737 mmHg 53%
18:00 +24°C° 0 mm 1 mps 738 mmHg 63%
19:00 +21°C° 0 mm 1 mps 738 mmHg 72%
20:00 +21°C° 0 mm 1 mps 738 mmHg 74%
21:00 +20°C° 0 mm 1 mps 738 mmHg 76%
22:00 +20°C° 0 mm 1 mps 738 mmHg 78%
23:00 +20°C° 0.1 mm 1 mps 738 mmHg 79%

Tomorrow, 22 September, Tuesday

Time Temperature Precipitation Wind Pressure Humidity
00:00 +20°C° 0.1 mm 1 mps 738 mmHg 79%
01:00 +19°C° 0.1 mm 1 mps 738 mmHg 80%
02:00 +18°C° 0 mm 2 mps 738 mmHg 79%
03:00 +18°C° 0 mm 2 mps 738 mmHg 78%
04:00 +18°C° 0 mm 2 mps 738 mmHg 77%
05:00 +19°C° 0 mm 2 mps 738 mmHg 72%
06:00 +20°C° 0 mm 2 mps 738 mmHg 67%
07:00 +22°C° 0 mm 1 mps 738 mmHg 62%
08:00 +25°C° 0 mm 1 mps 738 mmHg 55%
09:00 +27°C° 0 mm 1 mps 738 mmHg 47%
10:00 +29°C° 0 mm 2 mps 738 mmHg 40%
11:00 +29°C° 0 mm 2 mps 738 mmHg 40%
12:00 +29°C° 0 mm 3 mps 738 mmHg 41%
13:00 +30°C° 0 mm 4 mps 737 mmHg 41%
14:00 +29°C° 0.2 mm 4 mps 737 mmHg 45%
15:00 +28°C° 0.2 mm 3 mps 737 mmHg 48%
16:00 +27°C° 0.2 mm 3 mps 737 mmHg 52%
17:00 +25°C° 0.3 mm 2 mps 737 mmHg 60%
18:00 +23°C° 0.3 mm 2 mps 737 mmHg 69%
19:00 +22°C° 0.3 mm 1 mps 737 mmHg 77%
20:00 +21°C° 0.1 mm 1 mps 737 mmHg 77%
21:00 +21°C° 0.1 mm 1 mps 737 mmHg 77%
22:00 +20°C° 0.1 mm 2 mps 737 mmHg 78%
23:00 +21°C° 0 mm 1 mps 737 mmHg 78%

Day after tomorrow, 23 September, Wednesday

Time Temperature Precipitation Wind Pressure Humidity
00:00 +20°C° 0 mm 1 mps 737 mmHg 78%
01:00 +20°C° 0 mm 1 mps 737 mmHg 78%
02:00 +20°C° 0 mm 1 mps 737 mmHg 79%
03:00 +20°C° 0 mm 1 mps 737 mmHg 79%
04:00 +18°C° 0 mm 2 mps 737 mmHg 79%
05:00 +20°C° 0 mm 1 mps 737 mmHg 76%
06:00 +21°C° 0 mm 1 mps 737 mmHg 72%
07:00 +22°C° 0 mm 1 mps 737 mmHg 69%
08:00 +24°C° 0.1 mm 1 mps 737 mmHg 61%
09:00 +26°C° 0.1 mm 1 mps 737 mmHg 53%
10:00 +28°C° 0.1 mm 1 mps 736 mmHg 45%
11:00 +29°C° 0.1 mm 2 mps 736 mmHg 44%
12:00 +29°C° 0.1 mm 3 mps 736 mmHg 43%
13:00 +29°C° 0.1 mm 4 mps 735 mmHg 42%
14:00 +28°C° 1 mm 4 mps 735 mmHg 49%
15:00 +27°C° 1 mm 3 mps 735 mmHg 56%
16:00 +26°C° 1 mm 2 mps 735 mmHg 63%
17:00 +24°C° 1.5 mm 2 mps 735 mmHg 69%
18:00 +23°C° 1.5 mm 2 mps 735 mmHg 75%
19:00 +21°C° 1.5 mm 2 mps 735 mmHg 82%
20:00 +20°C° 1.9 mm 2 mps 735 mmHg 84%
21:00 +20°C° 1.9 mm 2 mps 735 mmHg 86%
22:00 +19°C° 1.9 mm 2 mps 735 mmHg 88%
23:00 +19°C° 1.5 mm 2 mps 735 mmHg 88%

24 September, Thursday

Time Temperature Precipitation Wind Pressure Humidity
00:00 +19°C° 1.5 mm 2 mps 735 mmHg 87%
01:00 +19°C° 1.5 mm 2 mps 735 mmHg 87%
02:00 +18°C° 0.4 mm 2 mps 735 mmHg 86%
03:00 +18°C° 0.4 mm 2 mps 735 mmHg 86%
04:00 +18°C° 0.4 mm 2 mps 735 mmHg 85%
05:00 +18°C° 0.8 mm 2 mps 735 mmHg 84%
06:00 +19°C° 0.8 mm 2 mps 736 mmHg 82%
07:00 +20°C° 0.8 mm 2 mps 736 mmHg 81%
08:00 +21°C° 0.5 mm 2 mps 736 mmHg 75%
09:00 +24°C° 0.5 mm 2 mps 736 mmHg 70%
10:00 +25°C° 0.5 mm 2 mps 736 mmHg 64%
11:00 +26°C° 0.1 mm 2 mps 736 mmHg 59%
12:00 +27°C° 0.1 mm 3 mps 736 mmHg 54%
13:00 +27°C° 0.1 mm 3 mps 736 mmHg 49%
14:00 +27°C° 0 mm 3 mps 736 mmHg 52%
15:00 +26°C° 0 mm 2 mps 736 mmHg 55%
16:00 +25°C° 0 mm 2 mps 736 mmHg 58%
17:00 +24°C° 0 mm 1 mps 736 mmHg 66%
18:00 +22°C° 0 mm 1 mps 737 mmHg 73%
19:00 +19°C° 0 mm 0 mps 737 mmHg 81%
20:00 +21°C° 0 mm 1 mps 737 mmHg 81%
21:00 +21°C° 0 mm 1 mps 737 mmHg 81%
22:00 +20°C° 0 mm 1 mps 738 mmHg 81%
23:00 +20°C° 0 mm 1 mps 737 mmHg 82%

25 September, Friday

Time Temperature Precipitation Wind Pressure Humidity
00:00 +20°C° 0 mm 1 mps 737 mmHg 83%
01:00 +19°C° 0 mm 1 mps 737 mmHg 83%
02:00 +19°C° 0 mm 1 mps 737 mmHg 83%
03:00 +19°C° 0 mm 1 mps 737 mmHg 83%
04:00 +19°C° 0 mm 1 mps 736 mmHg 82%
05:00 +20°C° 0 mm 1 mps 737 mmHg 78%
06:00 +21°C° 0 mm 1 mps 737 mmHg 73%
07:00 +21°C° 0 mm 1 mps 737 mmHg 69%
08:00 +23°C° 0 mm 1 mps 737 mmHg 60%
09:00 +25°C° 0 mm 2 mps 736 mmHg 51%
10:00 +27°C° 0 mm 2 mps 736 mmHg 43%
11:00 +28°C° 0 mm 2 mps 736 mmHg 42%
12:00 +28°C° 0 mm 2 mps 735 mmHg 41%
13:00 +28°C° 0 mm 2 mps 735 mmHg 40%
14:00 +27°C° 0 mm 2 mps 735 mmHg 44%
15:00 +27°C° 0 mm 2 mps 734 mmHg 48%
16:00 +26°C° 0 mm 2 mps 734 mmHg 51%
17:00 +25°C° 0 mm 2 mps 734 mmHg 53%
18:00 +24°C° 0 mm 2 mps 734 mmHg 55%
19:00 +23°C° 0 mm 2 mps 733 mmHg 57%
20:00 +23°C° 0 mm 1 mps 733 mmHg 57%
21:00 +23°C° 0 mm 1 mps 733 mmHg 57%
22:00 +23°C° 0 mm 1 mps 733 mmHg 57%
23:00 +22°C° 0.4 mm 1 mps 732 mmHg 62%

26 September, Saturday

Time Temperature Precipitation Wind Pressure Humidity
00:00 +21°C° 0.4 mm 2 mps 732 mmHg 68%
01:00 +20°C° 0.4 mm 2 mps 731 mmHg 73%
02:00 +20°C° 1.4 mm 2 mps 731 mmHg 77%
03:00 +19°C° 1.4 mm 2 mps 731 mmHg 80%
04:00 +19°C° 1.4 mm 3 mps 731 mmHg 84%
05:00 +19°C° 1.9 mm 3 mps 731 mmHg 85%
06:00 +19°C° 1.9 mm 4 mps 731 mmHg 86%
07:00 +19°C° 1.9 mm 5 mps 731 mmHg 87%
08:00 +20°C° 2.2 mm 5 mps 731 mmHg 86%
09:00 +20°C° 2.2 mm 6 mps 731 mmHg 84%
10:00 +21°C° 2.2 mm 6 mps 731 mmHg 83%
11:00 +20°C° 3.9 mm 5 mps 731 mmHg 84%
12:00 +20°C° 3.9 mm 5 mps 730 mmHg 84%
13:00 +20°C° 3.9 mm 5 mps 730 mmHg 85%
14:00 +19°C° 3 mm 4 mps 730 mmHg 87%
15:00 +19°C° 3 mm 3 mps 730 mmHg 88%
16:00 +18°C° 3 mm 2 mps 730 mmHg 90%
17:00 +18°C° 0.4 mm 2 mps 730 mmHg 88%
18:00 +17°C° 0.4 mm 2 mps 731 mmHg 87%
19:00 +17°C° 0.4 mm 2 mps 731 mmHg 85%
20:00 +17°C° 1 mm 3 mps 731 mmHg 84%
21:00 +15°C° 1 mm 4 mps 732 mmHg 83%
22:00 +15°C° 1 mm 5 mps 732 mmHg 82%
23:00 +14°C° 0.7 mm 5 mps 732 mmHg 82%
Show more